This is the latest recevied weather packets stored in our database for station/object KF4UQS-14. If no packets are shown the sender has not sent any weather packets the latest 1 day(s).
| Time | Temp. | Humidity | Pressure | Rain* | Wind** | Luminosity | Snow |
|---|---|---|---|---|---|---|---|
| 1778048205 | 17.22° C | 87% | 1015.8 hPa | 0 mm | 3.13 m/s, 217° | 0 W/m² | - |
| 1778047903 | 17.78° C | 87% | 1015.8 hPa | 0 mm | 2.68 m/s, 186° | 0 W/m² | - |
| 1778047601 | 17.78° C | 86% | 1015.9 hPa | 0 mm | 1.79 m/s, 183° | 0 W/m² | - |
| 1778047298 | 17.78° C | 86% | 1016.1 hPa | 0 mm | 1.79 m/s, 187° | 0 W/m² | - |
| 1778046995 | 17.78° C | 86% | 1016.1 hPa | 0 mm | 2.24 m/s, 189° | 0 W/m² | - |
| 1778046692 | 17.78° C | 86% | 1016.2 hPa | 0 mm | 2.68 m/s, 192° | 0 W/m² | - |
| 1778046389 | 17.78° C | 86% | 1016.3 hPa | 0 mm | 2.68 m/s, 208° | 0 W/m² | - |
| 1778046085 | 17.78° C | 86% | 1016.2 hPa | 0 mm | 1.79 m/s, 194° | 0 W/m² | - |
| 1778045783 | 17.78° C | 86% | 1016.2 hPa | 0 mm | 1.79 m/s, 203° | 0 W/m² | - |
| 1778045481 | 17.78° C | 85% | 1016.4 hPa | 0 mm | 1.34 m/s, 196° | 0 W/m² | - |
| 1778045179 | 17.78° C | 85% | 1016.5 hPa | 0 mm | 1.34 m/s, 252° | 0 W/m² | - |
| 1778044877 | 17.78° C | 85% | 1016.7 hPa | 0 mm | 1.34 m/s, 181° | 0 W/m² | - |
| 1778044573 | 17.78° C | 85% | 1016.6 hPa | 0 mm | 1.79 m/s, 186° | 0 W/m² | - |
| 1778044270 | 17.78° C | 85% | 1016.6 hPa | 0 mm | 1.79 m/s, 187° | 0 W/m² | - |
| 1778043968 | 17.78° C | 84% | 1016.5 hPa | 0 mm | 2.24 m/s, 179° | 0 W/m² | - |
| 1778043665 | 18.33° C | 84% | 1016.5 hPa | 0 mm | 0.89 m/s, 168° | 0 W/m² | - |
| 1778043362 | 18.33° C | 83% | 1016.4 hPa | 0 mm | 1.79 m/s, 206° | 0 W/m² | - |
| 1778043058 | 17.78° C | 83% | 1016.2 hPa | 0 mm | 1.79 m/s, 206° | 0 W/m² | - |
| 1778042756 | 18.33° C | 82% | 1016.4 hPa | 0 mm | 1.34 m/s, 190° | 0 W/m² | - |
| 1778042452 | 18.33° C | 82% | 1016.7 hPa | 0 mm | 1.79 m/s, 202° | 0 W/m² | - |
| 1778042150 | 18.33° C | 82% | 1016.6 hPa | 0 mm | 1.79 m/s, 176° | 0 W/m² | - |
| 1778041848 | 18.33° C | 81% | 1016.7 hPa | 0 mm | 2.68 m/s, 204° | 0 W/m² | - |
| 1778041547 | 18.33° C | 81% | 1016.7 hPa | 0 mm | 1.79 m/s, 212° | 0 W/m² | - |
| 1778041244 | 18.33° C | 81% | 1016.6 hPa | 0 mm | 2.24 m/s, 201° | 0 W/m² | - |
| 1778040943 | 18.33° C | 81% | 1016.6 hPa | 0 mm | 2.68 m/s, 189° | 0 W/m² | - |
* Rain latest hour (hover to see other rain measurements)
** Current wind speed in m/s (hover to see current wind gust speed)